www.pogodaiklimat.ru

Погода и климат >> Архив погоды >> Австралия >> Западная Австралия >> Брум


ПОГОДА в Бруме

  • Прогноз погоды в Бруме
  • Монитор погоды в Бруме

АРХИВ ПОГОДЫ в Бруме

Время (UTC), дата Ветер
(напр.,м/с)
 
Видим.   Явления Облачность Т
(С)
Тd
(С)
f
(%)
Тe
(С)
Тes
(С)
Комфортность P
(гПа)
Po
(гПа)
Тmin
(С)
Tmax
(С)
R
(мм)
R24
(мм)
S
(см)
04 17.02 СЗ 6 н/о 1/1 300 м
[]
+31.8 +25.6 70 +47 +54 опасность
перегрева
1009.4 1008.4
06 17.02 СЗ 6 н/о н/о +31.5 +25.0 68 +45 +45 опасность
перегрева
1008.3 1007.3
07 17.02 СЗ 6 н/о 1/1 300 м
[]
+31.5 +25.9 72 +47 +51 опасность
перегрева
1007.7 1006.7
09 17.02 СЗ 6 н/о н/о +31.1 +25.8 73 +46 +46 опасность
перегрева
1007.3 1006.3
10 17.02 СЗ 5 н/о 3/3 600 м
[]
+30.2 +25.4 76 +44 +44 опасность
перегрева
1007.7 1006.7
12 17.02 СЗ 4 н/о н/о +29.4 +25.6 80 +43 +43 опасность
перегрева
1008.8 1007.8
13 17.02 СЗ 5 н/о н/о +29.2 +25.8 82 +44 +44 опасность
перегрева
1009.6 1008.6
15 17.02 СЗ 5 н/о н/о +29.0 +25.6 82 +43 +43 опасность
перегрева
1009.4 1008.4
16 17.02 СЗ 6 н/о 6/6 300 м
[]
+29.0 +25.6 82 +43 +43 опасность
перегрева
1009.0 1008.0
18 17.02 СЗ 5 н/о н/о +29.0 +25.0 79 +42 +42 опасность
перегрева
1008.3 1007.3
19 17.02 СЗ 5 н/о 8/8 600 м
[]
+29.0 +25.2 80 +42 +42 опасность
перегрева
1007.7 1006.7
21 17.02 СЗ 5 н/о н/о +28.9 +25.1 80 +42 +42 опасность
перегрева
1008.1 1007.1
22 17.02 СЗ 4 н/о 8/8 600 м
[]
+28.9 +24.6 78 +41 +41 опасность
перегрева
1008.9 1007.9
00 18.02 СЗ 5 н/о н/о +30.2 +24.6 72 +43 +43 опасность
перегрева
1010.6 1009.6
01 18.02 СЗ 5 н/о 4/4 600 м
[]
+31.1 +24.8 69 +44 +48 опасность
перегрева
1010.9 1009.9 +28.8
03 18.02 СЗ 6 н/о н/о +31.7 +24.7 67 +45 +45 опасность
перегрева
1010.3 1009.3
04 18.02 СЗ 6 н/о 5/5 600 м
[]
+31.9 +24.5 65 +45 +49 опасность
перегрева
1009.9 1008.9
06 18.02 СЗ 7 н/о н/о +31.7 +24.9 67 +45 +45 опасность
перегрева
1008.7 1007.7
07 18.02 С 6 н/о 4/4 600 м
[]
+32.1 +25.2 67 +46 +49 опасность
перегрева
1008.5 1007.5
09 18.02 СЗ 5 н/о н/о +31.2 +24.8 69 +44 +44 опасность
перегрева
1008.6 1007.6
10 18.02 СЗ 5 н/о н/о +30.1 +24.7 73 +43 +43 опасность
перегрева
1008.5 1007.5
12 18.02 СЗ 4 н/о н/о +29.5 +24.8 76 +42 +42 опасность
перегрева
1009.6 1008.6
13 18.02 СЗ 5 н/о 3/3 600 м
[]
+29.4 +24.4 75 +42 +42 опасность
перегрева
1010.3 1009.3 +32.9
15 18.02 СЗ 5 н/о н/о +29.4 +24.8 76 +42 +42 опасность
перегрева
1010.9 1009.9
16 18.02 СЗ 5 н/о 5/5 600 м
[]
+29.1 +24.2 75 +41 +41 опасность
перегрева
1010.4 1009.4
18 18.02 СЗ 6 н/о н/о +29.0 +24.3 76 +41 +41 опасность
перегрева
1009.7 1008.7
19 18.02 СЗ 6 н/о 1/1 600 м
[]
+28.9 +24.1 75 +40 +40 очень
душно
1008.9 1007.9
21 18.02 СЗ 6 н/о н/о +28.9 +23.7 74 +40 +40 очень
душно
1009.3 1008.3
22 18.02 СЗ 4 н/о 5/5 600 м
[]
+28.9 +23.7 74 +40 +40 очень
душно
1010.2 1009.2
00 19.02 СЗ 4 н/о н/о +30.6 +24.6 70 +43 +43 опасность
перегрева
1011.2 1010.2
01 19.02 СЗ 6 н/о 1/1 600 м
[]
+30.7 +24.2 68 +43 +47 опасность
перегрева
1011.6 1010.6 +28.8
03 19.02 З 6 н/о н/о +31.6 +24.8 67 +45 +45 опасность
перегрева
1011.8 1010.8
04 19.02 З 6 н/о 10/10 600 м
[]
+31.7 +24.6 66 +44 +44 опасность
перегрева
1011.0 1010.0
06 19.02 З 6 н/о н/о +32.4 +24.1 62 +45 +45 опасность
перегрева
1010.1 1009.1
07 19.02 З 6 н/о 6/6 600 м
[]
+32.0 +24.6 65 +45 +47 опасность
перегрева
1009.9 1008.9
09 19.02 СЗ 5 н/о н/о +31.4 +24.7 68 +45 +45 опасность
перегрева
1009.4 1008.4
10 19.02 СЗ 5 н/о 1/1 300 м
[]
+30.0 +24.4 72 +42 +42 опасность
перегрева
1009.5 1008.5
12 19.02 СЗ 4 н/о н/о +29.5 +24.8 76 +42 +42 опасность
перегрева
1010.5 1009.5
13 19.02 СЗ 5 н/о 5/5 600 м
[]
+29.5 +24.9 76 +42 +42 опасность
перегрева
1011.2 1010.2 +33.0
15 19.02 СЗ 4 н/о н/о +29.4 +24.8 76 +42 +42 опасность
перегрева
1012.1 1011.1
16 19.02 СЗ 5 н/о 10/10 300 м
[]
+29.3 +24.9 77 +42 +42 опасность
перегрева
1011.9 1010.9
18 19.02 З 5 н/о н/о +29.2 +24.9 78 +42 +42 опасность
перегрева
1011.4 1010.4
19 19.02 З 5 н/о 9/9 600 м
[]
+29.3 +24.7 76 +42 +42 опасность
перегрева
1011.6 1010.6
21 19.02 З 3 н/о н/о +28.8 +24.8 79 +41 +41 опасность
перегрева
1012.1 1011.1
22 19.02 СВ 3 н/о 1/1 600 м
[]
+26.7 +24.7 89 +38 +38 очень
душно
1013.0 1012.0
00 20.02 В 5 н/о н/о +24.0 +21.9 88 +31 +31 очень
душно
1016.0 1015.0
01 20.02 СВ 5 н/о н/о +26.7 +22.4 77 +35 +35 очень
душно
1015.4 1014.4 +23.1
03 20.02 С 5 н/о н/о +32.8 +21.1 50 +40 +40 очень
душно
1012.0 1011.0
04 20.02 СЗ 6 н/о н/о +31.3 +23.0 61 +41 +41 опасность
перегрева
1010.8 1009.8
06 20.02 СЗ 6 н/о н/о +31.8 +24.1 64 +44 +44 опасность
перегрева
1009.5 1008.5
07 20.02 З 6 н/о н/о +31.8 +25.2 68 +46 +46 опасность
перегрева
1009.3 1008.3
09 20.02 З 6 н/о н/о +30.7 +24.3 69 +43 +43 опасность
перегрева
1009.4 1008.4
10 20.02 З 5 н/о 1/1 600 м
[]
+29.9 +24.9 75 +43 +43 опасность
перегрева
1009.4 1008.4
12 20.02 З 4 н/о н/о +29.6 +25.0 76 +42 +42 опасность
перегрева
1010.6 1009.6
13 20.02 З 3 н/о 6/6 300 м
[]
+29.4 +25.3 79 +43 +43 опасность
перегрева
1011.7 1010.7 +33.2
15 20.02 З 4 н/о н/о +29.7 +25.3 77 +43 +43 опасность
перегрева
1012.5 1011.5
16 20.02 З 4 н/о 10/10 600 м
[]
+29.7 +25.0 76 +43 +43 опасность
перегрева
1012.2 1011.2
18 20.02 З 4 н/о н/о +29.3 +25.3 79 +43 +43 опасность
перегрева
1011.3 1010.3
19 20.02 З 5 н/о 10/10 600 м
[]
+29.5 +24.8 76 +42 +42 опасность
перегрева
1011.4 1010.4
21 20.02 З 5 н/о н/о +29.4 +24.7 76 +42 +42 опасность
перегрева
1011.0 1010.0
22 20.02 З 4 н/о 3/3 600 м
[]
+29.3 +24.7 76 +42 +42 опасность
перегрева
1011.4 1010.4
00 21.02 З 4 н/о н/о +30.9 +24.9 70 +44 +44 опасность
перегрева
1012.6 1011.6
01 21.02 З 4 н/о 1/1 600 м
[]
+31.2 +24.9 69 +44 +52 опасность
перегрева
1012.8 1011.8 +24.1
03 21.02 З 5 н/о н/о +31.7 +24.6 66 +44 +44 опасность
перегрева
1012.4 1011.4
04 21.02 З 7 н/о 10/10 600 м
[]
+32.4 +24.6 64 +45 +45 опасность
перегрева
1011.7 1010.7
06 21.02 З 7 н/о н/о +32.3 +24.6 64 +45 +45 опасность
перегрева
1010.3 1009.3
07 21.02 З 5 н/о н/о +32.0 +24.1 63 +44 +44 опасность
перегрева
1009.8 1008.8
09 21.02 З 7 н/о н/о +31.0 +24.7 69 +44 +44 опасность
перегрева
1008.8 1007.8
10 21.02 З 5 н/о 3/3 300 м
[]
+30.3 +24.6 72 +43 +43 опасность
перегрева
1008.7 1007.7
12 21.02 З 4 н/о н/о +29.8 +24.8 75 +43 +43 опасность
перегрева
1010.3 1009.3
13 21.02 З 4 н/о 1/1 600 м
[]
+29.5 +24.9 76 +42 +42 опасность
перегрева
1010.6 1009.6 +33.2
15 21.02 З 5 н/о н/о +29.3 +25.2 79 +43 +43 опасность
перегрева
1011.0 1010.0
16 21.02 З 5 н/о 5/5 300 м
[]
+29.4 +25.1 78 +43 +43 опасность
перегрева
1010.8 1009.8
18 21.02 З 5 н/о н/о +29.0 +24.9 79 +42 +42 опасность
перегрева
1009.9 1008.9
19 21.02 З 5 н/о 8/8 300 м
[]
+29.2 +24.9 78 +42 +42 опасность
перегрева
1009.8 1008.8
21 21.02 З 4 н/о н/о +29.2 +24.6 76 +41 +41 опасность
перегрева
1010.2 1009.2
22 21.02 З 4 н/о 1/1 300 м
[]
+29.0 +24.6 77 +41 +41 опасность
перегрева
1010.8 1009.8
00 22.02 З 4 н/о н/о +30.6 +24.6 70 +43 +43 опасность
перегрева
1012.1 1011.1
01 22.02 З 5 н/о н/о +31.3 +24.9 69 +45 +45 опасность
перегрева
1012.2 1011.2 +29.0
03 22.02 З 6 н/о н/о +32.3 +24.9 65 +46 +46 опасность
перегрева
1011.8 1010.8
04 22.02 З 6 н/о 1/1 600 м
[]
+32.6 +24.2 61 +45 +52 опасность
перегрева
1011.2 1010.2
06 22.02 З 6 н/о н/о +32.8 +25.0 64 +47 +47 опасность
перегрева
1009.4 1008.4
07 22.02 З 6 н/о н/о +31.9 +25.0 67 +45 +45 опасность
перегрева
1008.9 1007.9
09 22.02 З 5 н/о н/о +31.2 +25.3 71 +45 +45 опасность
перегрева
1008.1 1007.1
10 22.02 З 6 н/о н/о +30.3 +25.3 75 +44 +44 опасность
перегрева
1008.4 1007.4
12 22.02 З 5 н/о н/о +29.5 +25.8 81 +44 +44 опасность
перегрева
1009.0 1008.0
13 22.02 З 5 н/о н/о +29.4 +25.7 81 +44 +44 опасность
перегрева
1009.6 1008.6 +33.4
15 22.02 З 6 н/о н/о +29.3 +26.1 83 +44 +44 опасность
перегрева
1008.8 1007.8
16 22.02 З 4 н/о 1/1 300 м
[]
+29.2 +26.1 83 +44 +44 опасность
перегрева
1008.6 1007.6
18 22.02 Ю 3 н/о н/о +30.0 +25.3 76 +44 +44 опасность
перегрева
1010.0 1009.0
19 22.02 СВ 3 н/о 6/6 600 м
[]
+27.9 +26.4 92 +43 +43 опасность
перегрева
1009.7 1008.7
21 22.02 С 3 н/о н/о +27.0 +25.7 93 +40 +40 очень
душно
1009.6 1008.6
22 22.02 С 4 н/о н/о +27.0 +25.6 92 +40 +40 очень
душно
1009.4 1008.4
00 23.02 СЗ 5 н/о н/о +30.8 +26.6 78 +47 +47 опасность
перегрева
1010.1 1009.1
01 23.02 СЗ 6 н/о 1/1 300 м
[]
+31.4 +25.9 73 +47 +51 опасность
перегрева
1010.5 1009.5 +26.9
03 23.02 СЗ 7 н/о н/о +32.5 +26.1 69 +48 +48 опасность
перегрева
1009.6 1008.6
04 23.02 З 6 н/о 1/1 300 м
[]
+32.2 +25.4 67 +46 +54 опасность
перегрева
1009.3 1008.3
06 23.02 З 5 н/о н/о +33.1 +24.9 62 +46 +46 опасность
перегрева
1008.0 1007.0
07 23.02 СЗ 5 н/о н/о +32.4 +24.9 65 +46 +46 опасность
перегрева
1007.6 1006.6
09 23.02 З 6 н/о н/о +31.3 +25.5 71 +46 +46 опасность
перегрева
1007.0 1006.0
10 23.02 СЗ 5 н/о н/о +30.4 +25.3 74 +44 +44 опасность
перегрева
1007.4 1006.4
12 23.02 З 4 н/о н/о +29.7 +25.9 80 +44 +44 опасность
перегрева
1008.5 1007.5
13 23.02 З 3 н/о 1/1 300 м
[]
+29.6 +25.9 81 +44 +44 опасность
перегрева
1008.8 1007.8 +33.4
15 23.02 З 3 н/о н/о +29.5 +26.0 81 +44 +44 опасность
перегрева
1009.0 1008.0
16 23.02 З 4 н/о 3/3 300 м
[]
+29.6 +25.9 81 +44 +44 опасность
перегрева
1008.6 1007.6
18 23.02 З 4 н/о н/о +29.7 +25.6 79 +44 +44 опасность
перегрева
1008.1 1007.1
19 23.02 З 3 н/о 3/3 300 м
[]
+29.5 +25.5 79 +43 +43 опасность
перегрева
1008.1 1007.1
21 23.02 ЮЗ 4 н/о н/о +29.4 +25.7 81 +44 +44 опасность
перегрева
1008.2 1007.2
22 23.02 ЮЗ 3 н/о 3/3 300 м
[]
+29.2 +25.7 81 +43 +43 опасность
перегрева
1008.7 1007.7
00 24.02 З 3 н/о н/о +30.8 +26.2 77 +47 +47 опасность
перегрева
1008.8 1007.8
01 24.02 З 3 н/о н/о +32.1 +25.9 70 +48 +48 опасность
перегрева
1009.2 1008.2 +29.2
03 24.02 З 4 н/о н/о +32.8 +26.3 69 +49 +49 опасность
перегрева
1008.4 1007.4
04 24.02 З 4 н/о н/о +33.0 +26.8 70 +51 +51 опасность
перегрева
1007.9 1006.9

 

Местоположение метеостанции Брум (Западная Австралия, Австралия): широта -17.95 долгота 122.23 высота над уровнем моря 9 м.

В архиве по умолчанию представлена погода в Бруме за последнюю неделю. Архивные данные за месяц целиком и за предыдущие месяцы, начиная с января 2011 года, Вы можете получить, выбрав интересующий диапазон дат из раскрывающегося списка и нажав кнопку "Ввод!".


*Определитесь, кто Вы:
робот инопланетянин человек

Внимание! Время в таблицах - всемирное. Для получения местного времени необходимо прибавить поправку, которая равна 8 ч.

Смотрите также архив погоды в соседних городах и на ближайших метеорологических станциях:

Погода в Робак Запад (Западная Австралия, Австралия) (11 км)
Погода в Дерби (Северная территория, Австралия) (165 км)
Погода на Базе ВВС Curtin (Западная Австралия, Австралия) (173 км)
Погода в Мандоре (Западная Австралия, Австралия) (246 км)
Погода на Острове Адель (Западная Австралия, Австралия) (289 км)
Погода в Роули Шоалс (Западная Австралия, Австралия) (351 км)
Погода в Фицрой-Кроссинге (Западная Австралия, Австралия) (353 км)
Погода в Телфере (Западная Австралия, Австралия) (418 км)
Погода в Марбл-баре (Западная Австралия, Австралия) (443 км)
Погода на Острове Брауз (Западная Австралия, Австралия) (450 км)

Пояснения к столбцам:

Ветер - указаны скорость ветра в м/с - средняя за 10 мин, порывы в срок и между сроками (в фигурных скобках) и направление, откуда дует ветер: С - северный, СВ - северо-восточный, В - восточный, ЮВ - юго-восточный, Ю - южный, ЮЗ - юго-западный, З - западный, СЗ - северо-западный.
Видимость - горизонтальная дальность видимости в метрах или километрах. При видимости от 1 до 10 км при отсутствии осадков обычно наблюдается дымка, при ухудшении видимости до 1 км и менее - туман. В сухую погоду видимость может ухудшаться дымом, пылью или мглою.
Явления - указаны атмосферные явления, наблюдавшиеся в срок или в последний час перед сроком; фигурными скобками обозначены явления, наблюдавшиеся между сроками (за 1-3 часа до срока); квадратными скобками обозначены град или гололедные отложения с указанием их диаметра в мм.
Облачность - указаны через наклонную черту общая и нижняя облачность в баллах и высота нижней границы облаков в метрах; квадратными скобками обозначены формы облаков: Ci - перистые, Cs - перисто-слоистые, Cc - перисто-кучевые, Ac - высококучевые, As - высокослоистые, Sc - слоисто-кучевые, Ns - слоисто-дождевые, Cu - кучевые, Cb - кучево-дождевые. Подробнее классификацию облаков см. в Атласе облаков (PDF).
T - Температура воздуха - температура, измеренная на высоте 2 м над землей.
Td - Температура точки росы - температура, при понижении до которой содержащийся в воздухе водяной пар достигнет насыщения.
f - Относительная влажность воздуха - влажноcть воздуха, измеренная на высоте 2 м над землей.
Te - Эффективная температура - температура, которую ощущает одетый по сезону человек в тени. Характеристика душности погоды. При расчете учитывается влияние влажности воздуха и скорости ветра на теплоощущения человека.
Tes - Эффективная температура на солнце - температура, которую ощущает человек, с поправкой на солнечный нагрев. Характеристика знойности погоды. Зависит от высоты солнца над горизонтом, облачности и скорости ветра. Ночью, в пасмурную погоду, а также при ветре 12 м/с и более поправка равна нулю.
P - Атмосферное давление - приведенное к уровню моря атмосферное давление.
Po - Атмосферное давление - измеренное на уровне метеостанции атмосферное давление.
Tmin - Минимальная температура - минимум температуры воздуха на высоте 2 м над землей.
Tmax - Максимальная температура - максимум температуры воздуха на высоте 2 м над землей.
R - Количество осадков - Количество выпавших осадков за период времени, мм. При наведении курсора мыши на число - период времени, за который выпало указанное количество осадков.
R24 - Количество осадков - Количество выпавших осадков за 24 часа, мм.
S - Снежный покров - Высота снежного покрова, см. При наведении курсора мыши на число - состояние снежного покрова и степень покрытия местности в баллах.